Location: Unspecified
(17.6330°N, 0.0000°E)
Time: 16:34:43
(UTC+00:00)

S-56A Canister/Altair - Pass Details

Date: 02 July 2019
Orbit: 632 x 2500 km, 38.9° (Epoch: 15 July)

Event Time Altitude Azimuth Distance (km) Brightness Sun altitude
Rises 14:08:03 0° 283° (WNW) 6,016 12.5 60.5°
Reaches altitude 10° 14:13:26 10° 295° (WNW) 4,798 12.2 59.3°
Maximum altitude 14:23:15 24° 344° (NNW) 3,209 11.3 57.0°
Drops below altitude 10° 14:30:50 10° 36° (NE) 3,631 11.0 55.3°
Sets 14:34:14 0° 50° (NE) 4,314 11.2 54.5°
